Regional Weather Roundup
Issued by NWS Portland, ME

Home | Current Version | Previous Version | Text Only | Print | Product List | Glossary On
Versions: 1 2 3 4 5 6 7 8 9 10 11 12 13 14 15 16 17 18 19 20 21 22 23 24 25 26 27 28 29 30 31 32 33 34 35 36 37 38 39 40 41 42 43 44 45 46 47 48 49 50
000
ASUS41 KGYX 281110
RWRGYX
WEATHER ROUNDUP FOR MAINE AND NEW HAMPSHIRE
NATIONAL WEATHER SERVICE GRAY ME
700 AM EDT TUE JUL 28 2015

MEZ002-005-006-010-012-015-018-020-021-024-026-027-029-281200-
MAINE

CITY           SKY/WX    TMP DP  RH WIND       PRES   REMARKS
PORTLAND       CLOUDY    65  64  97 E5        29.93F
SANFORD        CLOUDY    64  61  88 SW6       29.96S
BAR HARBOR     CLOUDY    63  63 100 NE3       29.97F
WISCASSET      CLOUDY    65  64  97 CALM      29.97F
ROCKLAND       CLOUDY    61  61 100 SW7       29.97R
FRYEBURG       MOSUNNY   66  64  93 W5        29.98F
LEWISTONAUBURN CLOUDY    64  63  94 CALM      29.97R
AUGUSTA        FOG       65  65 100 E3        29.98F VSB 1/4
BANGOR         FOG       64  64 100 S8        29.94F VSB 1
GREENVILLE       N/A     60  60 100 CALM      29.97S
MILLINOCKET    CLOUDY    64  62  93 CALM      29.95F
HOULTON        CLOUDY    68  64  87 SW6       29.93F
PRESQUE ISLE   MOSUNNY   63  57  82 S5        29.94R
FRENCHVILLE    PTSUNNY   61  59  93 W5        29.92S
CARIBOU        MOSUNNY   64  60  87 S7        29.93R
$$

NHZ002-005-008-009-011-012-014-281200-
NEW HAMPSHIRE

CITY           SKY/WX    TMP DP  RH WIND       PRES   REMARKS
PORTSMOUTH     PTSUNNY   68  66  95 SW5       29.96S
ROCHESTER      PTSUNNY   67  65  93 VRB3      29.96S FOG
NASHUA         SUNNY     66  64  94 CALM      29.99  FOG
MANCHESTER     PTSUNNY   69  66  90 CALM      29.98R
CONCORD        PTSUNNY   69  65  86 CALM      29.99R
LACONIA        MOSUNNY   66  63  88 SW6       29.99S
PLYMOUTH       FOG       63  63 100 CALM      30.01R VSB<1/4
BERLIN         FOG       63  61  93 CALM      30.02R VSB 1/4
WHITEFIELD     FOG       60  59  96 CALM      30.03R VSB<1/4
JAFFREY        CLOUDY    67  66  97 S5        30.04R FOG
KEENE          CLOUDY    66  61  82 CALM      30.02S VSB 3/4
LEBANON        PTSUNNY   69  66  90 N3        30.00R FOG
MT WASHINGTON  MOSUNNY   50  43  76 NW29        N/A
$$

VTZ005-007-008-281200-
VERMONT

CITY           SKY/WX    TMP DP  RH WIND       PRES   REMARKS
ST JOHNSBURY     N/A     63  61  93 MISG      30.01R
MONTPELIER     FOG       62  62 100 CALM      30.06R VSB<1/4
BURLINGTON     MOSUNNY   68  65  90 SE3       29.99S
$$

MAZ007-012-024-CTZ003-RIZ002-NYZ038-NYZ072-281200-
SOUTHERN NEW ENGLAND AND NY

CITY           SKY/WX    TMP DP  RH WIND       PRES   REMARKS
BOSTON         MOSUNNY   70  68  93 SW9       29.99R
WORCESTER      PTSUNNY   68  66  93 W8        30.03R FOG
NANTUCKET      FOG       69  68  96 S6        30.02S VSB 1/4
PROVIDENCE     CLOUDY    71  69  93 S6        30.01R
HARTFORD       MOSUNNY   70  68  93 S5        30.00R FOG
ALBANY         FOG       69  66  90 NW3       30.02S VSB 1
NEW YORK CITY  MOSUNNY   77  69  76 CALM      30.00R
$$

ANZ081-ANZ082-ANZ150-NHZ014-MEZ023>029-281200-
COASTAL MARINE OBSERVATIONS

STATION/POSITION TIME  TEMP    WIND        PRES    WAVE
                       AIR SEA DIR/SP/G            HT/PER
                 (UTC) (F)     (DEG/KT/KT) (MB)    (FT/S)
MOUNT DESERT ROC 1100   59     250/ 15/ 16 1014.7F
MATINICUS ROCK   1000   62     270/ 12/ 13 1014.9R
ISLE OF SHOALS   1000   69     240/ 10/ 10 1014.4R
JEFFREYS LEDGE   1003      64                N/A     3/ 8
CASHES LEDGE BUO 1050   67                 1014.3F   3/10
GEORGES BANK BUO 0950   66 64   30/  4/  6 1016.7    3/ 8
$$

.............KEY..............
   WCI - WIND CHILL
   TC  - TEMPERATURE IN CELSIUS
   VSB - VISIBILITY IN MILES
   HX  - HEAT INDEX
   FAIR- INDICATES FEW OR NO CLOUDS BELOW 12,000 FT, WITH NO
         SIGNIFICANT WEATHER AND/OR OBSTRUCTIONS TO VISIBILITY.





USA.gov is the U.S. government's official web portal to all federal, state and local government web resources and services.